This is the latest recevied weather packets stored in our database for station/object WB6ANP. If no packets are shown the sender has not sent any weather packets the latest 10 day(s).
| Time | Temp. | Humidity | Pressure | Rain* | Wind** | Luminosity | Snow |
|---|---|---|---|---|---|---|---|
| 1777339370 | 27.22° C | 67% | 1008.1 hPa | 0 mm | - | 1 W/m² | - |
| 1777339068 | 27.78° C | 63% | 1008.1 hPa | 0 mm | - | 2 W/m² | - |
| 1777338765 | 27.78° C | 57% | 1008.4 hPa | 0 mm | - | 3 W/m² | - |
| 1777338463 | 28.33° C | 52% | 1008.1 hPa | 0 mm | - | 5 W/m² | - |
| 1777338159 | 28.33° C | 51% | 1007.9 hPa | 0 mm | - | 7 W/m² | - |
| 1777337855 | 28.89° C | 52% | 1008.1 hPa | 0 mm | - | 10 W/m² | - |
| 1777337553 | 28.89° C | 51% | 1008.3 hPa | 0 mm | - | 13 W/m² | - |
| 1777337249 | 29.44° C | 51% | 1008 hPa | 0 mm | - | 17 W/m² | - |
| 1777336947 | 29.44° C | 50% | 1007.9 hPa | 0 mm | - | 25 W/m² | - |
| 1777336646 | 30° C | 50% | 1008.1 hPa | 0 mm | - | 31 W/m² | - |
| 1777336344 | 30.56° C | 50% | 1008 hPa | 0 mm | - | 42 W/m² | - |
| 1777336041 | 31.11° C | 48% | 1008 hPa | 0 mm | - | 52 W/m² | - |
| 1777335737 | 31.67° C | 47% | 1008.1 hPa | 0 mm | - | 63 W/m² | - |
| 1777335434 | 31.67° C | 48% | 1008.1 hPa | 0 mm | - | 70 W/m² | - |
| 1777335132 | 31.67° C | 45% | 1008 hPa | 0 mm | - | 77 W/m² | - |
| 1777334830 | 32.22° C | 44% | 1008.3 hPa | 0 mm | - | 78 W/m² | - |
| 1777334527 | 32.22° C | 43% | 1008.1 hPa | 0 mm | - | 104 W/m² | - |
| 1777334223 | 32.78° C | 41% | 1008 hPa | 0 mm | - | 118 W/m² | - |
| 1777333922 | 32.78° C | 39% | 1008 hPa | 0 mm | - | 129 W/m² | - |
| 1777333620 | 32.78° C | 38% | 1008.1 hPa | 0 mm | - | 137 W/m² | - |
| 1777333315 | 33.33° C | 38% | 1008.4 hPa | 0 mm | - | 159 W/m² | - |
| 1777333015 | 33.33° C | 37% | 1008.3 hPa | 0 mm | - | 172 W/m² | - |
| 1777332713 | 33.33° C | 37% | 1008 hPa | 0 mm | - | 181 W/m² | - |
| 1777332408 | 34.44° C | 35% | 1008 hPa | 0 mm | - | 201 W/m² | - |
| 1777332105 | 34.44° C | 33% | 1008.4 hPa | 0 mm | - | 219 W/m² | - |
* Rain latest hour (hover to see other rain measurements)
** Current wind speed in m/s (hover to see current wind gust speed)